Weather History for Florala, AL

Change the Weather History Date:

Wednesday, February 20, 2013

  Actual Average (KCEW) Record (KCEW)
Temperature  
Mean Temperature 48 °F -  
Max Temperature 60 °F 69 °F 78 °F (1949)
Min Temperature 36 °F 43 °F 27 °F (2009)
Degree Days  
Heating Degree Days 17    
Moisture  
Dew Point 27 °F    
Average Humidity 52    
Maximum Humidity 82    
Minimum Humidity 22    
Precipitation  
Precipitation 0.00 in - - ()
Sea Level Pressure  
Sea Level Pressure 30.19 in    
Wind  
Wind Speed 4 mph (NNE)    
Max Wind Speed 9 mph    
Max Gust Speed 18 mph    
Visibility 10 miles    
Events      
Averages and records for this station are not official NWS values.
T = Trace of Precipitation, MM = Missing Value Source: NWS Daily Summary

Daily Weather History Graph

Daily Weather History Graph

Search for Another Location

Airport:

Trip Planner

Search our weather history database for the weather conditions in past years. The results will help you decide how hot, cold, wet, or windy it might be!

Date:

Astronomy

Feb. 20, 2013 Rise Set
Actual Time 6:21 AM CST 5:37 PM CST
Civil Twilight 5:56 AM CST 6:01 PM CST
Nautical Twilight 5:28 AM CST 6:29 PM CST
Astronomical Twilight 5:00 AM CST 6:57 PM CST
Moon 1:09 PM CST (2/20) 2:29 AM CST (2/20)
Length of Visible Light 12h 04m
Length of Day
11h 15m
Waxing Gibbous, 76% of the Moon is Illuminated
Feb 20
Waxing Gibbous
Feb 25
Full
Mar 4
Last Quarter
Mar 11
New
Mar 19
First Quarter

Hourly Weather History & Observations

Time (CST) Temp. Windchill Dew Point Humidity Pressure Visibility Wind Dir Wind Speed Gust Speed Precip Events Conditions
12:58 AM 42.1 °F 38.4 °F 28.0 °F 58% 30.19 in 10.0 mi North 5.8 mph - N/A   Clear
1:58 AM 41.0 °F - 26.1 °F 55% 30.20 in 10.0 mi Calm Calm - N/A   Clear
2:58 AM 36.0 °F 33.3 °F 28.9 °F 76% 30.21 in 10.0 mi North 3.5 mph - N/A   Clear
3:58 AM 39.0 °F 35.7 °F 25.0 °F 57% 30.22 in 10.0 mi Variable 4.6 mph - N/A   Clear
4:58 AM 37.0 °F 33.3 °F 25.0 °F 62% 30.23 in 10.0 mi North 4.6 mph - N/A   Clear
5:58 AM 36.0 °F 32.1 °F 25.0 °F 64% 30.23 in 10.0 mi North 4.6 mph - N/A   Clear
6:58 AM 36.0 °F 31.1 °F 26.1 °F 67% 30.22 in 10.0 mi NE 5.8 mph - N/A   Clear
7:58 AM 41.0 °F 36.4 °F 27.0 °F 57% 30.22 in 10.0 mi ENE 6.9 mph - N/A   Clear
8:58 AM 46.0 °F 41.4 °F 23.0 °F 40% 30.26 in 10.0 mi NNE 9.2 mph 18.4 mph N/A   Clear
9:58 AM 48.0 °F - 21.9 °F 36% 30.26 in 10.0 mi NE 5.8 mph - N/A   Clear
10:58 AM 50.0 °F - 21.9 °F 33% 30.26 in 10.0 mi Calm Calm - N/A   Clear
11:58 AM 54.0 °F - 21.9 °F 29% 30.22 in 10.0 mi Variable 3.5 mph - N/A   Clear
12:58 PM 55.9 °F - 21.9 °F 27% 30.18 in 10.0 mi ENE 4.6 mph - N/A   Clear
1:58 PM 59.0 °F - 24.1 °F 26% 30.15 in 10.0 mi Variable 3.5 mph - N/A   Clear
2:58 PM 60.1 °F - 21.0 °F 22% 30.13 in 10.0 mi Variable 4.6 mph - N/A   Clear
3:58 PM 60.1 °F - 24.1 °F 25% 30.14 in 10.0 mi NNE 5.8 mph - N/A   Clear
4:58 PM 55.0 °F - 30.0 °F 38% 30.14 in 10.0 mi North 3.5 mph - N/A   Clear
5:58 PM 48.9 °F - 34.0 °F 56% 30.14 in 10.0 mi North 3.5 mph - N/A   Clear
6:58 PM 48.9 °F - 30.9 °F 50% 30.15 in 10.0 mi Calm Calm - N/A   Clear
7:58 PM 46.0 °F 43.9 °F 30.9 °F 56% 30.15 in 10.0 mi North 4.6 mph - N/A   Clear
8:58 PM 41.0 °F - 32.0 °F 70% 30.15 in 10.0 mi Calm Calm - N/A   Clear
9:58 PM 39.0 °F - 33.1 °F 79% 30.16 in 10.0 mi Calm Calm - N/A   Clear
10:58 PM 36.0 °F 33.3 °F 30.9 °F 82% 30.13 in 10.0 mi South 3.5 mph - N/A   Clear
11:58 PM 36.0 °F - 30.9 °F 82% 30.12 in 10.0 mi Calm Calm - N/A   Clear